This is the latest recevied weather packets stored in our database for station/object W4TJP. If no packets are shown the sender has not sent any weather packets the latest 10 day(s).
| Time | Temp. | Humidity | Pressure | Rain* | Wind** | Luminosity | Snow |
|---|---|---|---|---|---|---|---|
| 1777777381 | 6.11° C | 99% | 1017.9 hPa | 0 mm | - | 0 W/m² | - |
| 1777777078 | 5.56° C | 99% | 1017.8 hPa | 0 mm | - | 0 W/m² | - |
| 1777776775 | 5.56° C | 99% | 1017.7 hPa | 0 mm | - | 0 W/m² | - |
| 1777776472 | 5.56° C | 99% | 1017.6 hPa | 1.78 mm | - | 0 W/m² | - |
| 1777776169 | 5.56° C | 99% | 1017.4 hPa | 1.78 mm | - | 0 W/m² | - |
| 1777775866 | 5.56° C | 99% | 1017.7 hPa | 0 mm | - | 0 W/m² | - |
| 1777775563 | 5.56° C | 99% | 1017.6 hPa | 0 mm | - | 0 W/m² | - |
| 1777775259 | 6.11° C | 99% | 1017.4 hPa | 0 mm | - | 0 W/m² | - |
| 1777774954 | 6.11° C | 99% | 1017.4 hPa | 0 mm | - | 0 W/m² | - |
| 1777774651 | 6.11° C | 99% | 1017.8 hPa | 0 mm | - | 0 W/m² | - |
| 1777774347 | 6.11° C | 99% | 1017.7 hPa | 0 mm | - | 0 W/m² | - |
| 1777774045 | 6.11° C | 99% | 1017.6 hPa | 0 mm | - | 0 W/m² | - |
| 1777773742 | 6.67° C | 99% | 1017.7 hPa | 0 mm | - | 0 W/m² | - |
| 1777773439 | 6.67° C | 99% | 1017.7 hPa | 0 mm | - | 0 W/m² | - |
| 1777773136 | 6.67° C | 99% | 1017.8 hPa | 0 mm | - | 0 W/m² | - |
| 1777772831 | 6.67° C | 98% | 1017.6 hPa | 0 mm | - | 0 W/m² | - |
| 1777772530 | 7.22° C | 98% | 1017.6 hPa | 0 mm | - | 0 W/m² | - |
| 1777772226 | 7.22° C | 98% | 1017.5 hPa | 0 mm | - | 0 W/m² | - |
| 1777771924 | 7.22° C | 98% | 1017.5 hPa | 0 mm | - | 0 W/m² | - |
| 1777771621 | 7.22° C | 98% | 1017.6 hPa | 0 mm | - | 0 W/m² | - |
| 1777771318 | 7.22° C | 98% | 1017.4 hPa | 0 mm | - | 0 W/m² | - |
| 1777771014 | 7.22° C | 97% | 1017.5 hPa | 0 mm | - | 0 W/m² | - |
| 1777770712 | 7.78° C | 97% | 1017.5 hPa | 0 mm | - | 0 W/m² | - |
| 1777770408 | 7.78° C | 95% | 1017.4 hPa | 0 mm | - | 0 W/m² | - |
| 1777770105 | 7.78° C | 95% | 1017.5 hPa | 0 mm | - | 0 W/m² | - |
* Rain latest hour (hover to see other rain measurements)
** Current wind speed in m/s (hover to see current wind gust speed)